Content
SEND FEEDBACK

Daily
Averages
Monthly
Summary
United States of America

WANN, OKLAHOMA


Home > North America > United States > Oklahoma
Elevation: 840 feet     Latitude: 36 55N     Longitude: 095 48W

WEATHER
 
SELECT A DAY
Number of Records: 182,273;   Date Range: 7/1/96 - 12/17/14
 
SHARE

PRINT THIS DATA

[ ← Previous Day ]
WEATHER ALMANAC - JANUARY 31, 2013
[ Next Day → ]
[ °C ]   °F
Weather ElementAverageHighLow
Temperature27 °F39 °F (11:52 am)19 °F (10:52 pm)
Dewpoint18.3 °F25 °F (8:52 am)8.1 °F (10:52 pm)
Humidity70.5 %85 % (1:52 am)54 % (4:52 pm)
Barometer30.25 in30.53 in (10:52 pm)30.02 in (4:52 am)
Wind Speed10.8 mph24.2 mph (2:59 pm)
Wind Gust31.1 mph (3:16 pm)
Weather ElementAverage
Visibility8.2 mi
Wind DirectionSW (221.5 °)

Weather ElementTotal
Precipitation---
Heating Degree Days36 (Base 65)
Averaged from 27 records on January 31, 2013
WEATHER CONDITIONS BREAKOUT
WIND DIRECTION BREAKOUT
WEATHER BY HOUR - JANUARY 31, 2013
[ °C ]   °F
Local TimeTemperatureDewpointHumidityBarometerVisibilityWind DirectionWind SpeedGust SpeedPrecipitationEventsConditions
1:52 AM25.0 °F21.0 °F85 %30.05 in10.0 miSouth (180°)3.5 mphClear
2:52 AM24.1 °F19.9 °F84 %30.04 in10.0 miSouth (180°)5.8 mphClear
3:52 AM24.1 °F19.9 °F84 %30.04 in10.0 miSouth (190°)4.6 mphClear
4:52 AM25.0 °F21.0 °F85 %30.02 in10.0 miSouth (180°)5.8 mphClear
5:52 AM26.1 °F21.0 °F81 %30.02 in10.0 miSouth (190°)10.4 mphClear
6:52 AM26.1 °F21.9 °F84 %30.03 in9.0 miSouth (190°)6.9 mphClear
7:52 AM26.1 °F21.9 °F84 %30.06 in6.0 miCalmClear
8:52 AM30.0 °F25.0 °F82 %30.11 in7.0 miSSW (210°)3.5 mphMostly Cloudy
9:52 AM34.0 °F25.0 °F70 %30.14 in10.0 miNNW (330°)4.6 mphMostly Cloudy
10:52 AM36.0 °F25.0 °F64 %30.17 in10.0 miNNW (340°)6.9 mphClear
11:52 AM39.0 °F25.0 °F57 %30.22 in10.0 miNorth (350°)17.3 mphMostly Cloudy
12:52 PM35.1 °F21.9 °F59 %30.26 in10.0 miNNW (340°)12.7 mph23.0 mphOvercast
2:23 PM28.4 °F23.0 °F80 %30.25 in2.5 miNorth (350°)21.9 mph25.3 mph0.00 inSnowLight Snow
2:31 PM28.4 °F23.0 °F80 %30.25 in1.0 miNorth (360°)13.8 mph27.6 mph0.00 inSnowLight Snow
2:39 PM28.4 °F23.0 °F80 %30.25 in0.8 miNorth (360°)18.4 mph23.0 mph0.00 inSnowLight Snow
2:52 PM28.0 °F21.9 °F78 %30.30 in1.5 miNorth (350°)18.4 mph27.6 mph0.00 inSnowLight Snow
2:59 PM28.4 °F19.4 °F69 %30.26 in3.0 miNorth (360°)24.2 mph29.9 mph0.00 inSnowLight Snow
3:16 PM28.4 °F17.6 °F64 %30.27 in10.0 miNorth (10°)23.0 mph31.1 mph0.00 inMostly Cloudy
3:52 PM28.0 °F16.0 °F61 %30.32 in10.0 miNorth (350°)13.8 mph0.00 inMostly Cloudy
4:52 PM28.9 °F14.0 °F54 %30.35 in10.0 miNorth (360°)16.1 mph21.9 mphScattered Clouds
5:52 PM26.1 °F12.0 °F55 %30.38 in10.0 miNorth (10°)11.5 mphClear
6:52 PM24.1 °F10.9 °F57 %30.44 in10.0 miNorth (360°)9.2 mphClear
7:52 PM21.9 °F9.0 °F58 %30.48 in10.0 miNorth (10°)5.8 mphClear
8:52 PM21.0 °F9.0 °F60 %30.50 in10.0 miNorth (10°)9.2 mphClear
9:52 PM19.9 °F9.0 °F62 %30.51 in10.0 miNNE (20°)9.2 mphClear
10:52 PM19.0 °F8.1 °F62 %30.53 in10.0 miNorth (360°)6.9 mphClear
11:52 PM19.0 °F9.0 °F65 %30.51 in10.0 miNNE (30°)8.1 mphClear
Hourly data recorded from KCFV, located miles away from Wann, Oklahoma







STORIES FROM OUR PARTNERS